星链-3621 (STARLINK-3621 )

导读

STARLINK-3621是美国SpaceX公司星链星座的卫星,于2022年2月25日发射升空,属于星链组网批次卫星之一,部署在约550公里高度的近地轨道运行。它搭载相控阵天线和OFDM通信技术,依托低轨轨道降低传输时延,为全球提供低延迟宽带互联网服务,配合氩气推进器完成轨道机动与离轨处置,是星链大规模卫星互联网星座的组成单元。

Basic Information
目录编号:
51769
目录名称:
STARLINK-3621
国际标识:
2022-017B
轨道中心:
EARTH
卫星名称:
星链-3621
卫星全名:
星链-3621 (STARLINK-3621 )
卫星状态:
在轨 (已飞行1660 天)
发射日期:
2022-02-25 UTC
国别 :
美国 (US)
星等 :
--
This satellite is enrolled in the Space Conjunction Data Service (SCDS) and the current flight risk assessment level is: No High Risk
Orbit Information
数据来源 国际轨道数据 AOE轨道数据
星历时间 2026-09-12T12:04:31+0800
6小时前
查看轨道信息
2026-09-10T22:00:00+0800
1天前
查看轨道信息
半长轴 6911.832km 6911.874km
偏心率 0.0001387 0.0001281
轨道倾角 53.215° 53.216°
近地点辐角 75.714° 87.706°
升交点赤经 220.839° 227.986°
平近点角 284.401° 279.039°
近地点 532.736km 532.851km
远地点 534.654km 534.623km
周期 95.312分钟 95.313分钟
每日圈数 15.108212 15.108073
Detailed Information
固有亮度:
5
最大亮度:
2.5
卫星平台:
Starlink v1.5
覆盖范围:
全球
运营商:
太空探索技术公司
运营商所在国:
美国
制造商(研发单位):
太空探索技术公司
制造商所在国:
美国
使用方式:
暂无
Satellite Introduction
星链(Starlink)计划是由太空探索技术公司(SpaceX)提出的一个巨型低轨卫星互联网星座项目,计划在2019年至2024年间在太空搭建由约1.2万颗卫星组成的“星链”网络,其中1584颗将部署在地球上空550千米处的近地轨道,并从2020年开始工作。该卫星仍在工作。
2D Orbit Map
3D Orbit Map
Orbit Altitude Analysis Chart
Orbit Inclination Analysis Chart
Orbit Comprehensive Analysis Chart
View Comprehensive Chart
Miss Distance Evolution Trend with All Objects
Collision Probability Evolution Trend with All Objects